STARLINK-32352, 61847

Orbit data source: Space-Track

STARLINK-32352, 61847 is a payload satellite owned by SpaceX/Seattle (US) in LEO that was launched on Thu, 07 Nov 2024 UTC via an FALCON 9 launch vehicle from the Air Force Eastern Test Range (AFETR). Payloads include a variety of satellites, spacecraft, and rockets equipped with specific instruments for various scientific and technological missions. These include communications satellites like Starlink; space stations such as the ISS; scientific satellites like the Hubble; Earth observation satellites from companies like Planet Labs, Umbra, and HawkEye 360; GPS; miniature CubeSats for education and research; and military/defense satellites.

Loading next visibility...
STARLINK-32352 details
Identifier
61847, 2024-202C
Orbit
LEO
Last TLE update9 hours ago
Origin
Flag of USSpaceX/Seattle (US)
ManufacturerSpaceX/Seattle
MissionOperational spacecraft
Bus & MotorSTARLINK V2M, Unknown motor
Mass730 kg wet, ~700 kg dry
Launch date (UTC)
2024-11-07 (2 months ago)
Launch vehicle
FALCON 9
Launch site
Air Force Eastern Test Range (AFETR)
Object type
Payload
Rocket body
Debris
Shape & HBRUnknown
Radar Cross SectionLarge (>1 m²)

Expand to show TLE details & history

TLE from 9 hours ago
0 STARLINK-32352
1 61847U 24202C   24361.60408144  .00003365  00000-0  87772-4 0  9991
2 61847  42.9975 201.1119 0001318 273.8684  86.2021 15.40705661  8237
Epoch: 2024-12-26T14:29Z
Definitive object data (Epoch: 2024-12-26T14:29:52.636Z)
Latitude-0.00007°
Longitude-111.93858°
Altitude443.74 km
Speed7.648 km/s
True Right ascension13h 24m 26s
True Declination0° 00' 00"
Sunlit
Object was in daylight at TLE epoch
Visualization TLE readout
Latitude0.80641°
Longitude65.14745°
Altitude443.807 km
Speed7.648 km/s
Apparent Right ascension04h 16m 10s
Apparent Declination-41° 13' 38"
Sunlit
Object is in daylight
Visualization observer readout
Local Sidereal Time22:26:13
Azimuth125.028° SE
Elevation-23.427°
Doppler factor1
Orbital elements
Apogee altitude446.882 km
Perigee altitude445.083 km
Semi-major axis6,824.119 km
Eccentricity0.0001318
Inclination42.9975°
RAAN201.1119°
Arg. of periapsis273.8684°
True anomaly86.21717°
Mean anomaly86.2021°
Eccentric anomaly86.20964°
Mean motion3.85011 °/min
BSTAR0.000087772
Orbital period93.5 mins
Loading maneuver chart data...
Loading historical data...
Loading historical data...
Loading historical data...
Loading historical data...
Loading historical data...
Loading historical data...
Loading historical data...

STARLINK-32352 Visibility forecast

Observer location: undefined°, undefined

Span
Click to sort rows by Start time (UTC) header in descending order
Start Az.
Max El. time (UTC)
Max El. Az.
Max El.
End time (UTC)
End Az.
4 mins2024-12-27 17:11:58.522Z223.864° SW2024-12-27 17:12:58.522Z195.247° SSW38.227°2024-12-27 17:15:58.522Z79.66° E
5 mins2024-12-27 18:49:58.522Z287.207° WNW2024-12-27 18:51:58.522Z20.354° NNE37.471°2024-12-27 18:54:58.522Z71.432° E
5 mins2024-12-27 20:27:58.522Z296.789° NW2024-12-27 20:29:58.522Z16.235° NNE40.991°2024-12-27 20:32:58.522Z90.98° ESE
5 mins2024-12-27 22:05:58.522Z268.8° W2024-12-27 22:07:58.522Z205.878° SW33.9°2024-12-27 22:10:58.522Z137.226° SSE
|